Regional Weather Roundup
Issued by NWS New Orleans/Baton Rouge, LA

Home | Current Version | Previous Version | Text Only | Print | Product List | Glossary On
Versions: 1 2 3 4 5 6 7 8 9 10 11 12 13 14 15 16 17 18 19 20 21 22 23 24 25 26 27 28 29 30 31 32 33 34 35 36 37 38 39 40 41 42 43 44 45 46 47 48 49 50
658
ASUS44 KLIX 242010
RWRLIX
NEW ORLEANS REGIONAL WEATHER ROUNDUP
NATIONAL WEATHER SERVICE NEW ORLEANS LA
300 PM CDT FRI OCT 24 2014

NOTE: "FAIR" INDICATES FEW OR NO CLOUDS BELOW 12,000 FEET WITH NO
      SIGNIFICANT WEATHER AND/OR OBSTRUCTIONS TO VISIBILITY.
      SKY/WX - SKY CONDITION AND SIGNIFICANT WEATHER.
      TMP - AIR TEMPERATURE.     DP    - DEWPOINT TEMPERATURE.
      RH  - RELATIVE HUMIDITY.   PRES  - PRESSURE.
      HI  - HEAT INDEX.          WCI   - WIND CHILL INDEX.

*  THESE STATIONS ARE NOT NWS OR FAA STATIONS AND ARE NOT UNDER
   NWS QUALITY CONTROL.

LAZ038-040-048-061>063-065>067-069-242100-
SOUTHEAST LOUISIANA

CITY           SKY/WX    TMP DP  RH WIND       PRES   REMARKS
N.O. AUDUBON   NOT AVBL
N.O. INTL ARPT MOSUNNY   75  47  36 N7        30.05F
N.O. LAKEFRONT SUNNY     71  52  50 W9        30.05F
N.O. DOWNTOWN*   N/A     73  45  35 NW8       30.05F
SLIDELL        SUNNY     76  46  34 N6        30.03F
BATON ROUGE    SUNNY     76  44  32 VRB5      30.06F
BOOTHVILLE     SUNNY     71  54  54 N6        30.03F
BELLE CHASSE   SUNNY     75  41  29 N7        30.04S
BOGALUSA*        N/A     78  41  26 NE6       30.06F
NEW ROADS*       N/A     74  47  37 N6        30.07F
GONZALES*        N/A     75  43  31 N9        30.05F
HAMMOND*       SUNNY     79  36  21 N10       30.07S
HOUMA*         SUNNY     77  39  25 N6        30.04F
PORT FOURCHON* CLEAR     75  46  35 N10       30.07S

$$

MSZ070-080>082-242100-
SOUTHERN MISSISSIPPI

CITY           SKY/WX    TMP DP  RH WIND       PRES   REMARKS
MCCOMB         SUNNY     75  40  28 N10G17    30.07F
GULFPORT       SUNNY     77  45  32 N8        30.02F
BILOXI         SUNNY     77  42  28 N10       30.02F
PASCAGOULA     SUNNY     78  40  25 NE9G17    30.01F
STENNIS ARPT*  SUNNY     77  37  24 N7        30.03F

$$

COASTAL OBSERVATIONS
LAKE AND NEARSHORE STATIONS

STATION/POSITION TIME  TEMP    WIND        PRES    WAVE
                       AIR SEA DIR/SP/G            HT/PER
                 (UTC) (F)     (DEG/KT/KT) (MB)    (FT/S)
PASCAGOULA       2000   77     350/  8/ 12 1015.8
WAVELAND YACHT   2000   73     360/  7/  9 1016.1
GRAND ISLE       2000   74 73   20/  5/  9 1017.6
SOUTHWEST PASS   2000   77 81              1017.1
NEW CANAL        2000   70 71  290/  2/  3 1017.9
SHELL BEACH      2000   69 67  310/  5/  6 1017.1

OFFSHORE STATIONS

STATION/POSITION TIME  TEMP    WIND        PRES    WAVE
                       AIR SEA DIR/SP/G            HT/PER
                 (UTC) (F)     (DEG/KT/KT) (MB)    (FT/S)
64 S DAUPHIN ISL 1944   71 80  360/ 10/ 12 1016.5    2/ 7

$$




USA.gov is the U.S. government's official web portal to all federal, state and local government web resources and services.